Madrid, Spain

4:15 AM CET on December 13, 2017 (GMT +0100)
Madrid-Barajas Airport

Weather History for LEMD - September, 2012

Change the Weather History Date:

Saturday, September 22, 2012

  Actual Average Record
Temperature  
Mean Temperature 74 °F -  
Max Temperature 86 °F 70 °F 89 °F (2004)
Min Temperature 61 °F 49 °F 42 °F (2000)
Cooling Degree Days 8    
Growing Degree Days 24 (Base 50)    
Moisture  
Dew Point 50 °F    
Average Humidity 43    
Maximum Humidity 68    
Minimum Humidity 18    
Precipitation  
Precipitation 0.00 in 0.05 in - ()
Sea Level Pressure  
Sea Level Pressure 29.98 in    
Wind  
Wind Speed 3 mph ()    
Max Wind Speed 14 mph    
Max Gust Speed 21 mph    
Visibility 7.7 miles    
Events      
Averages and records for this station are not official NWS values.
T = Trace of Precipitation, MM = Missing Value Source: Averaged Metar Reports

Daily Weather History Graph

Daily Weather History Graph

Search for Another Location

Airport or City:

Trip Planner

Search our weather history database for the weather conditions in past years. The results will help you decide how hot, cold, wet, or windy it might be!

Date:

Astronomy

Sep. 22, 2012 Rise Set
Actual Time 8:02 AM CEST 8:10 PM CEST
Civil Twilight 7:34 AM CEST 8:38 PM CEST
Nautical Twilight 7:02 AM CEST 9:09 PM CEST
Astronomical Twilight 6:30 AM CEST 9:42 PM CEST
Moon 3:08 PM CEST (9/22) No Moon Set
Length of Visible Light 13h 03m
Length of Day
12h 08m
Waxing Crescent, 45% of the Moon is Illuminated
Sep 22
Waxing Crescent
Sep 22
First Quarter
Sep 30
Full
Oct 8
Last Quarter
Oct 15
New

Hourly Weather History & Observations

Time (CEST) Temp. Dew Point Humidity Pressure Visibility Wind Dir Wind Speed Gust Speed Precip Events Conditions
12:00 AM 73.4 °F 51.8 °F 47% 30.01 in - NNE 3.5 mph - N/A   Clear
12:30 AM 71.6 °F 51.8 °F 50% 30.01 in - North 2.3 mph - N/A   Clear
1:00 AM 71.6 °F 51.8 °F 50% 30.01 in 6.2 mi Calm Calm - N/A   Partly Cloudy
1:30 AM 71.6 °F 51.8 °F 50% 30.01 in 6.2 mi Calm Calm - N/A   Scattered Clouds
2:00 AM 69 °F 50 °F 39% 29.94 in 18 mi North 4.6 mph - -   Scattered Clouds
2:00 AM 69.8 °F 51.8 °F 53% 30.01 in 6.2 mi North 3.5 mph - N/A   Scattered Clouds
2:30 AM 69.8 °F 51.8 °F 53% 30.01 in 6.2 mi North 3.5 mph - N/A   Partly Cloudy
3:00 AM 69.8 °F 51.8 °F 53% 30.01 in 6.2 mi North 2.3 mph - N/A   Partly Cloudy
3:30 AM 69.8 °F 51.8 °F 53% 30.01 in 6.2 mi Calm Calm - N/A   Partly Cloudy
4:00 AM 69.8 °F 51.8 °F 53% 30.01 in 6.2 mi Calm Calm - N/A   Partly Cloudy
4:30 AM 68.0 °F 51.8 °F 56% 30.01 in 6.2 mi Variable 1.2 mph - N/A   Partly Cloudy
5:00 AM 66.2 °F 51.8 °F 60% 30.01 in 6.2 mi Variable 1.2 mph - N/A   Scattered Clouds
5:30 AM 66.2 °F 51.8 °F 60% 29.98 in 6.2 mi North 2.3 mph - N/A   Scattered Clouds
6:00 AM 66.2 °F 51.8 °F 60% 29.98 in 6.2 mi North 2.3 mph - N/A   Scattered Clouds
6:30 AM 66.2 °F 51.8 °F 60% 29.98 in 6.2 mi NNE 2.3 mph - N/A   Scattered Clouds
7:00 AM 64.4 °F 51.8 °F 64% 29.98 in 6.2 mi North 3.5 mph - N/A   Scattered Clouds
7:30 AM 64.4 °F 51.8 °F 64% 30.01 in 6.2 mi NNE 3.5 mph - N/A   Scattered Clouds
8:00 AM 62 °F 49 °F 53% 29.97 in 19 mi North 2.3 mph - -   Partly Cloudy
8:00 AM 62.6 °F 51.8 °F 68% 30.01 in 6.2 mi North 2.3 mph - N/A   Scattered Clouds
8:30 AM 62.6 °F 51.8 °F 68% 30.01 in 6.2 mi North 1.2 mph - N/A   Scattered Clouds
9:00 AM 64.4 °F 51.8 °F 64% 30.01 in 6.2 mi Variable 1.2 mph - N/A   Scattered Clouds
9:30 AM 68.0 °F 51.8 °F 56% 30.04 in 6.2 mi Variable 1.2 mph - N/A   Scattered Clouds
10:00 AM 68.0 °F 51.8 °F 56% 30.04 in 6.2 mi Variable 1.2 mph - N/A   Scattered Clouds
10:30 AM 71.6 °F 51.8 °F 50% 30.04 in 6.2 mi NE 1.2 mph - N/A   Scattered Clouds
11:00 AM 75.2 °F 53.6 °F 47% 30.04 in 6.2 mi SSW 1.2 mph - N/A   Scattered Clouds
11:30 AM 77.0 °F 53.6 °F 44% 30.04 in 6.2 mi SSE 3.5 mph - N/A   Scattered Clouds
12:00 PM 78.8 °F 53.6 °F 42% 30.04 in 6.2 mi SE 5.8 mph - N/A   Partly Cloudy
12:30 PM 78.8 °F 53.6 °F 42% 30.01 in 6.2 mi SSW 8.1 mph 20.7 mph N/A   Partly Cloudy
1:00 PM 80.6 °F 51.8 °F 37% 30.01 in 6.2 mi SW 11.5 mph - N/A   Scattered Clouds
1:30 PM 80.6 °F 51.8 °F 37% 30.01 in 6.2 mi SSW 9.2 mph - N/A   Scattered Clouds
2:00 PM 82 °F 49 °F 21% 29.89 in 19 mi SSW 10.4 mph - -   Scattered Clouds
2:00 PM 82.4 °F 51.8 °F 35% 30.01 in 6.2 mi SSW 9.2 mph - N/A   Partly Cloudy
2:30 PM 82.4 °F 51.8 °F 35% 29.98 in 6.2 mi SSW 8.1 mph - N/A   Partly Cloudy
3:30 PM 86.0 °F 48.2 °F 27% 29.98 in 6.2 mi SW 13.8 mph - N/A   Partly Cloudy
4:00 PM 84.2 °F 48.2 °F 29% 29.95 in 6.2 mi South 6.9 mph - N/A   Partly Cloudy
4:30 PM 86.0 °F 50.0 °F 29% 29.95 in - WSW 9.2 mph - N/A   Clear
5:00 PM 86.0 °F 48.2 °F 27% 29.95 in - SSW 10.4 mph - N/A   Clear
5:30 PM 86.0 °F 48.2 °F 27% 29.95 in - SW 8.1 mph - N/A   Clear
6:00 PM 87.8 °F 48.2 °F 25% 29.95 in - WSW 8.1 mph - N/A   Clear
6:30 PM 87.8 °F 46.4 °F 24% 29.95 in - SW 8.1 mph - N/A   Clear
7:00 PM 86.0 °F 46.4 °F 25% 29.95 in - SW 12.7 mph - N/A   Clear
7:30 PM 86.0 °F 48.2 °F 27% 29.95 in - SW 8.1 mph - N/A   Clear
8:00 PM 82 °F 46 °F 18% 29.83 in 19 mi WSW 5.8 mph - -   Clear
8:00 PM 84.2 °F 48.2 °F 29% 29.95 in - WSW 6.9 mph - N/A   Clear
8:30 PM 84.2 °F 48.2 °F 29% 29.95 in - SW 6.9 mph - N/A   Clear
9:00 PM 84.2 °F 46.4 °F 27% 29.95 in - SW 5.8 mph - N/A   Clear
9:30 PM 80.6 °F 48.2 °F 32% 29.95 in - SW 2.3 mph - N/A   Clear
10:00 PM 80.6 °F 48.2 °F 32% 29.95 in - West 2.3 mph - N/A   Clear
10:30 PM 75.2 °F 48.2 °F 38% 29.95 in - Calm Calm - N/A   Clear
11:00 PM 73.4 °F 48.2 °F 41% 29.95 in - Variable 2.3 mph - N/A   Clear
11:30 PM 73.4 °F 48.2 °F 41% 29.95 in - Variable 2.3 mph - N/A   Clear